Location: Unspecified
(0.0000°N, 0.0000°E)
Time: 02:24:34
(UTC+00:00)

STARLINK-11254 [DTC] - Visible Passes

Search period start: 04 October 2024 00:00
Search period end: 14 October 2024 00:00
Orbit: 359 x 360 km, 53.2° (Epoch: 03 October)

Date Brightness Start Highest point End Pass type
(mag) Time Alt. Az. Time Alt. Az. Time Alt. Az.
11 Oct 5.4 19:25:45 10° NW 19:26:42 18° WNW 19:26:42 18° WNW visible
12 Oct 3.8 18:19:55 10° N 18:22:29 26° NE 18:25:04 10° ESE visible
13 Oct 4.8 18:48:52 10° WNW 18:51:31 30° WSW 18:54:12 10° S visible
